Location: Breitenfeld
(46.8500°N, 15.6333°E)
Time: 21:31:29
(UTC+00:00)

Tiangong - Pass Details

Date: 03 December 2022
Orbit: 383 x 386 km, 41.5° (Epoch: 29 January)

Event Time Altitude Azimuth Distance (km) Brightness Sun altitude
Rises 17:19:53 0° 249° (WSW) 2,257 3.2 -21.4°
Reaches altitude 10° 17:22:06 10° 238° (WSW) 1,407 1.7 -21.8°
Enters shadow 17:24:18 27° 198° (SSW) 779 -0.4 -22.1°
